Lake Clear, NY

11:58 AM EST on February 09, 2016 (GMT -0500)
Adirondack Regional

Weather History for KSLK - February, 2013

Change the Weather History Date:

Tuesday, February 5, 2013

  Actual Average Record
Temperature  
Mean Temperature -1 °F 13 °F  
Max Temperature 18 °F 26 °F - ()
Min Temperature -20 °F 1 °F - ()
Degree Days  
Heating Degree Days 66 52  
Month to date heating degree days 305 260  
Since 1 July heating degree days 5214 5562  
Cooling Degree Days 0 0  
Month to date cooling degree days 0  
Year to date cooling degree days 0  
Moisture  
Dew Point -9 °F    
Average Humidity 63    
Maximum Humidity 92    
Minimum Humidity 33    
Precipitation  
Precipitation 0.00 in 0.06 in - ()
Month to date precipitation 0.01 0.29  
Year to date precipitation 1.24 2.42  
Sea Level Pressure  
Sea Level Pressure 29.92 in    
Wind  
Wind Speed 3 mph (SW)    
Max Wind Speed 12 mph    
Max Gust Speed 16 mph    
Visibility 10 miles    
Events      
T = Trace of Precipitation, MM = Missing Value Source: NWS Daily Summary

Daily Weather History Graph

Daily Weather History Graph

Search for Another Location

Airport or City:

Trip Planner

Search our weather history database for the weather conditions in past years. The results will help you decide how hot, cold, wet, or windy it might be!

Date:

Astronomy

Feb. 05, 2013 Rise Set
Actual Time 7:10 AM EST 5:12 PM EST
Civil Twilight 6:39 AM EST 5:42 PM EST
Nautical Twilight 6:05 AM EST 6:17 PM EST
Astronomical Twilight 5:31 AM EST 6:51 PM EST
Moon 2:53 AM EST (2/5) 12:22 PM EST (2/5)
Length of Visible Light 11h 03m
Length of Day
10h 02m
Waning Crescent, 27% of the Moon is Illuminated
Feb 5
Waning Crescent
Feb 10
New
Feb 17
First Quarter
Feb 25
Full
Mar 4
Last Quarter

Hourly Weather History & Observations

Time (EST) Temp. Windchill Dew Point Humidity Pressure Visibility Wind Dir Wind Speed Gust Speed Precip Events Conditions
12:51 AM -14.1 °F - -18.0 °F 82% 29.92 in 10.0 mi Calm Calm - N/A   Clear
1:51 AM -16.1 °F - -20.0 °F 82% 29.94 in 10.0 mi Calm Calm - N/A   Clear
2:51 AM -17.0 °F - -20.9 °F 82% 29.93 in 10.0 mi Calm Calm - N/A   Clear
3:51 AM -17.0 °F - -23.1 °F 74% 29.94 in 10.0 mi Calm Calm - N/A   Clear
4:51 AM -18.0 °F - -23.1 °F 78% 29.95 in 10.0 mi Calm Calm - N/A   Clear
5:51 AM -18.9 °F - -24.0 °F 78% 29.96 in 10.0 mi Calm Calm - N/A   Clear
6:51 AM -18.9 °F - -25.1 °F 74% 29.97 in 10.0 mi Calm Calm - N/A   Clear
7:51 AM -18.0 °F - -24.0 °F 74% 30.00 in 10.0 mi Calm Calm - N/A   Clear
8:51 AM -9.0 °F - -11.0 °F 91% 30.00 in 10.0 mi Calm Calm - N/A   Clear
9:51 AM 1.9 °F - -5.1 °F 72% 29.99 in 10.0 mi Calm Calm - N/A   Clear
10:51 AM 8.1 °F -5.3 °F -2.9 °F 61% 29.99 in 10.0 mi SW 9.2 mph - N/A   Clear
11:51 AM 10.9 °F -2.6 °F -7.1 °F 44% 29.97 in 10.0 mi WSW 10.4 mph - N/A   Clear
12:51 PM 14.0 °F 2.0 °F -5.1 °F 43% 29.95 in 10.0 mi SSW 9.2 mph - N/A   Clear
1:51 PM 15.1 °F 6.4 °F -5.1 °F 41% 29.93 in 10.0 mi Variable 5.8 mph - N/A   Clear
2:51 PM 16.0 °F 6.3 °F -6.0 °F 38% 29.91 in 10.0 mi WSW 6.9 mph - N/A   Clear
3:51 PM 17.1 °F 11.7 °F -7.1 °F 34% 29.91 in 10.0 mi Variable 3.5 mph - N/A   Mostly Cloudy
4:51 PM 17.1 °F - -5.1 °F 37% 29.91 in 10.0 mi Calm Calm - N/A   Overcast
5:51 PM 14.0 °F - -0.9 °F 52% 29.90 in 10.0 mi Calm Calm - N/A   Overcast
6:51 PM 12.9 °F 2.6 °F 1.0 °F 59% 29.89 in 10.0 mi ENE 6.9 mph - N/A   Overcast
7:51 PM 10.9 °F 4.7 °F -0.0 °F 61% 29.90 in 10.0 mi NE 3.5 mph - N/A   Mostly Cloudy
9:51 PM 10.9 °F 4.7 °F 1.0 °F 64% 29.87 in 10.0 mi NE 3.5 mph - N/A   Overcast
10:51 PM 10.0 °F - 1.9 °F 70% 29.86 in 10.0 mi Calm Calm - N/A   Overcast
11:31 PM 10.4 °F - 1.4 °F 67% 29.74 in 10.0 mi Calm Calm - N/A   Overcast
11:51 PM 10.0 °F - 1.9 °F 70% 29.84 in 10.0 mi Calm Calm - N/A   Overcast